Location: Archemont
(49.1579°N, 1.7598°E)
Time: 07:03:42
(UTC+00:00)

S-56A Canister/Altair - Pass Details

Date: 23 April 2024
Orbit: 638 x 2488 km, 38.9° (Epoch: 18 May)

Event Time Altitude Azimuth Distance (km) Brightness Sun altitude
Rises 17:15:55 0° 243° (WSW) 3,145 11.8 15.4°
Reaches altitude 10° 17:18:14 10° 233° (SW) 2,357 11.0 15.1°
Maximum altitude 17:23:06 33° 170° (S) 1,573 9.1 14.3°
Drops below altitude 10° 17:29:46 10° 110° (ESE) 3,266 10.2 13.2°
Sets 17:33:34 0° 102° (ESE) 4,567 10.8 12.6°
